Home   Weather   Darmstadt   Past weeks

Flag for Germany Past Weather in Darmstadt, Hesse, Germany — Yesterday and Last 2 Weeks

Now
52 °F

Sunny.


Feels Like: 49 °F
Forecast: 38 / 55 °F
Wind: 8 mph from North

Location: Frankfurt-M-Flughafen Airport

Current Time: Apr 26, 2017 at 2:05:37 pm

Latest Report: Apr 26, 2017 at 1:50 pm


Visibility: 10 mi

Pressure: 29.86 "Hg

Humidity: 38%

Dew Point: 27 °F

Location of DarmstadtLocation

Past Weather in Darmstadt — Graph

°F

Darmstadt Temperature Yesterday

Maximum temperature yesterday: 54 °F (at 5:50 pm)
Minimum temperature yesterday: 37 °F (at 3:50 am)
Average temperature yesterday: 46 °F

High & Low Weather Summary for the Past Weeks

 TemperatureHumidityPressure
High66 °F (Apr 12, 2:20 pm)100% (Apr 17, 10:20 am)30.60 "Hg (Apr 17, 10:20 am)
Low27 °F (Apr 20, 4:20 am)30% (Apr 20, 6:20 pm)29.68 "Hg (Apr 25, 3:50 am)
Average47 °F61%30.13 "Hg
* Reported Apr 11 12:20 pm — Apr 26 12:50 pm, Darmstadt, Weather by CustomWeather, © 2017

Note: Actual official high and low records may vary slightly from our data, if they occured in-between our weather recording intervals... More about our weather records

Advertising

Darmstadt Weather History for the Previous 24 Hours

Scroll right to see more
 ConditionsComfort  
Time TempWeatherWind HumidityBarometerVisibility
12:50 pm
Wed, Apr 26
50 °FSunny.3 mph37%29.86 "Hg10 mi
11:50 am48 °FPassing clouds.6 mph43%29.86 "HgN/A
11:20 am48 °FPassing clouds.7 mph40%29.86 "HgN/A
10:50 am46 °FPartly sunny.7 mph50%29.86 "HgN/A
10:20 am46 °FPartly sunny.7 mph50%29.86 "HgN/A
9:50 am46 °FPartly sunny.8 mph50%29.86 "HgN/A
9:20 am45 °FPartly sunny.8 mph53%29.86 "HgN/A
8:50 am45 °FMore clouds than sun.8 mph53%29.86 "HgN/A
8:20 am43 °FMore clouds than sun.7 mph57%29.86 "HgN/A
7:50 am43 °FPassing clouds.6 mph61%29.83 "HgN/A
7:20 am43 °FPassing clouds.3 mph61%29.83 "HgN/A
6:50 am41 °FSunny.5 mph66%29.83 "Hg10 mi
6:20 am41 °FSunny.5 mph66%29.83 "Hg10 mi
5:50 am41 °FClear.7 mph66%29.83 "Hg10 mi
5:20 am41 °FClear.7 mph66%29.83 "Hg10 mi
4:50 am41 °FClear.6 mph66%29.83 "Hg10 mi
4:20 am41 °FClear.5 mph66%29.83 "Hg10 mi
3:50 am39 °FClear.5 mph70%29.83 "Hg10 mi
3:20 am41 °FClear.5 mph66%29.83 "Hg10 mi
2:50 am43 °FClear.5 mph61%29.83 "Hg10 mi
2:20 am43 °FClear.7 mph61%29.83 "Hg10 mi
1:50 am45 °FPartly cloudy.7 mph53%29.80 "HgN/A
1:20 am45 °FPartly cloudy.8 mph53%29.83 "HgN/A
12:50 am45 °FPartly cloudy.5 mph53%29.80 "HgN/A
12:20 am45 °FClear.8 mph53%29.83 "Hg10 mi
11:50 pm
Tue, Apr 25
46 °FClear.7 mph50%29.80 "Hg10 mi
11:20 pm46 °FPassing clouds.7 mph53%29.80 "HgN/A
10:50 pm46 °FPassing clouds.8 mph53%29.80 "HgN/A
10:20 pm46 °FPassing clouds.9 mph53%29.80 "HgN/A
9:50 pm46 °FPassing clouds.7 mph53%29.83 "HgN/A
8:50 pm48 °FClear.10 mph50%29.80 "Hg10 mi
8:20 pm50 °FPassing clouds.10 mph40%29.80 "HgN/A
7:50 pm50 °FSunny.9 mph37%29.77 "Hg10 mi
7:20 pm52 °FSunny.8 mph32%29.77 "Hg10 mi
6:50 pm52 °FPassing clouds.12 mph32%29.77 "HgN/A
6:20 pm52 °FSunny.13 mph32%29.77 "Hg10 mi
5:50 pm54 °FPassing clouds.8 mph33%29.77 "HgN/A
4:50 pm52 °FPassing clouds.10 mph35%29.77 "HgN/A
4:20 pm52 °FPassing clouds.9 mph38%29.77 "HgN/A
3:50 pm50 °FMore clouds than sun.9 mph50%29.80 "HgN/A
3:20 pm52 °FMore clouds than sun.10 mph50%29.80 "HgN/A
2:50 pm50 °FBroken clouds.9 mph54%29.80 "HgN/A
2:20 pm48 °FPartly sunny.13 mph54%29.80 "HgN/A
Weather by CustomWeather, © 2017

See weather overviewHow to use our weather pages